Date String (YYYY-MM-DD hh:mm:ss) UTC,Instrument flags,Ambient pressure (hPa),Sample flow (lpm),Bypass flow (lpm),Sample temperature (°C),Ambient temperature (°C),ASC tube jacket temperature (°C),LED temperature (°C),Box temperature (°C),Sample RH (%),Span deviation,Mass concentration (μg/m³),Mass concentration (μg/m³),Mass concentration (μg/m³)
DateTimeUTC,F1_M11,P_M11,Q1_M11,Q2_M11,T1_M11,T2_M11,T3_M11,T4_M11,T5_M11,U1_M11,ZSPAN_M11,X0_M11,X2_M11,X1_M11
2021-11-30 12:00:00,,0830.5,4.98,0.00,28.5,27.5,00.0,37.6,30.2,07.2,0000.0,0002.32,0001.24,0000.81
2021-11-30 12:01:00,,0830.6,4.99,0.00,28.5,27.5,00.0,37.6,30.2,07.5,0000.0,0002.26,0001.22,0000.83
2021-11-30 12:02:00,,0830.6,5.01,0.00,28.5,27.5,00.0,37.6,30.2,07.5,0000.0,0002.55,0001.29,0000.84
2021-11-30 12:03:00,,0830.6,4.98,0.00,28.5,27.5,00.0,37.6,30.2,07.4,0000.0,0002.70,0001.31,0000.85
2021-11-30 12:04:00,,0830.6,5.01,0.00,28.5,27.5,00.0,37.6,30.2,07.5,0000.0,0002.58,0001.30,0000.87
2021-11-30 12:05:00,,0830.7,4.99,0.00,28.5,27.5,00.0,37.6,30.2,07.4,0000.0,0002.52,0001.34,0000.89
2021-11-30 12:06:00,,0830.6,5.00,0.00,28.5,27.5,00.0,37.6,30.2,07.2,0000.0,0002.48,0001.34,0000.90
2021-11-30 12:07:00,,0830.6,4.99,0.00,28.5,27.5,00.0,37.6,30.1,07.2,0000.0,0002.59,0001.39,0000.92
2021-11-30 12:08:00,,0830.6,4.99,0.00,28.5,27.5,00.0,37.5,30.1,07.2,0000.0,0002.58,0001.39,0000.92
2021-11-30 12:09:00,,0830.8,5.02,0.00,28.5,27.5,00.0,37.5,30.1,07.3,0000.0,0002.52,0001.37,0000.93
2021-11-30 12:10:00,,0830.8,5.00,0.00,28.4,27.4,00.0,37.5,30.1,07.6,0000.0,0002.59,0001.39,0000.93
2021-11-30 12:11:00,,0830.9,5.00,0.00,28.4,27.4,00.0,37.5,30.0,08.6,0000.0,0003.29,0001.56,0000.96
2021-11-30 12:12:00,,0830.9,5.01,0.00,28.3,27.3,00.0,37.5,29.9,09.4,0000.0,0004.34,0001.85,0001.05
2021-11-30 12:13:00,,0830.9,5.00,0.00,28.2,27.2,00.0,37.5,29.8,09.9,0000.0,0005.65,0002.23,0001.17
2021-11-30 12:14:00,,0830.9,5.00,0.00,28.2,27.1,00.0,37.4,29.7,10.1,0000.0,0008.19,0002.81,0001.31
2021-11-30 12:15:00,,0831.0,5.00,0.00,28.1,27.0,00.0,37.4,29.7,10.2,0000.0,0009.49,0003.22,0001.45
2021-11-30 12:16:00,,0831.1,5.00,0.00,28.1,27.0,00.0,37.4,29.6,10.3,0000.0,0010.87,0003.42,0001.58
2021-11-30 12:17:00,,0831.1,5.00,0.00,28.0,26.9,00.0,37.3,29.6,10.4,0000.0,0012.85,0003.65,0001.71
2021-11-30 12:18:00,,0831.1,5.01,0.00,27.9,26.8,00.0,37.3,29.5,10.5,0000.0,0015.41,0003.89,0001.86
2021-11-30 12:19:00,,0831.2,5.00,0.00,27.9,26.8,00.0,37.2,29.4,10.5,0000.0,0017.50,0004.12,0002.01
2021-11-30 12:20:00,,0831.1,4.99,0.00,27.8,26.7,00.0,37.2,29.4,10.6,0000.0,0020.16,0004.33,0002.18
2021-11-30 12:21:00,,0831.1,5.00,0.00,27.8,26.6,00.0,37.1,29.4,10.6,0000.0,0021.34,0004.53,0002.34
2021-11-30 12:22:00,,0831.0,4.99,0.00,27.7,26.5,00.0,37.1,29.2,10.7,0000.0,0022.45,0004.66,0002.49
2021-11-30 12:23:00,,0831.1,5.01,0.00,27.6,26.4,00.0,37.0,29.1,10.7,0000.0,0024.20,0004.80,0002.58
2021-11-30 12:24:00,,0831.2,5.00,0.00,27.5,26.4,00.0,37.0,29.1,10.7,0000.0,0026.45,0004.80,0002.63
2021-11-30 12:25:00,,0831.2,4.99,0.00,27.5,26.3,00.0,36.9,29.0,10.7,0000.0,0026.30,0004.72,0002.69
2021-11-30 12:26:00,,0831.2,5.01,0.00,27.5,26.4,00.0,36.9,29.0,10.7,0000.0,0026.61,0004.78,0002.77
2021-11-30 12:27:00,,0831.2,4.99,0.00,27.4,26.3,00.0,36.9,29.0,10.7,0000.0,0027.66,0004.86,0002.82
2021-11-30 12:28:00,,0831.2,5.00,0.00,27.4,26.3,00.0,36.8,29.0,10.8,0000.0,0027.62,0005.03,0002.89
2021-11-30 12:29:00,,0831.2,5.00,0.00,27.4,26.3,00.0,36.8,29.0,10.8,0000.0,0026.67,0005.10,0002.95
2021-11-30 12:30:00,,0831.2,5.01,0.00,27.4,26.4,00.0,36.8,29.1,10.7,0000.0,0026.65,0005.23,0003.00
2021-11-30 12:31:00,,0831.2,5.01,0.00,27.4,26.4,00.0,36.7,29.1,10.7,0000.0,0026.77,0005.28,0003.03
2021-11-30 12:32:00,,0831.2,4.99,0.00,27.4,26.4,00.0,36.7,29.0,10.8,0000.0,0027.49,0005.29,0003.06
2021-11-30 12:33:00,,0831.2,4.99,0.00,27.3,26.4,00.0,36.7,29.0,10.8,0000.0,0027.48,0005.30,0003.07
2021-11-30 12:34:00,,0831.3,5.00,0.00,27.3,26.4,00.0,36.6,28.9,10.8,0000.0,0027.85,0005.32,0003.07
2021-11-30 12:35:00,,0831.2,5.01,0.00,27.3,26.3,00.0,36.6,28.9,10.8,0000.0,0027.49,0005.38,0003.08
2021-11-30 12:36:00,,0831.3,5.00,0.00,27.2,26.3,00.0,36.6,28.8,10.9,0000.0,0027.27,0005.45,0003.07
2021-11-30 12:37:00,,0831.3,5.00,0.00,27.2,26.2,00.0,36.5,28.8,10.9,0000.0,0027.20,0005.39,0003.05
2021-11-30 12:38:00,,0831.3,5.01,0.00,27.2,26.1,00.0,36.5,28.8,10.9,0000.0,0026.51,0005.41,0003.06
2021-11-30 12:39:00,,0831.2,4.99,0.00,27.1,26.1,00.0,36.5,28.7,10.9,0000.0,0026.56,0005.29,0003.03
2021-11-30 12:40:00,,0831.2,5.00,0.00,27.1,26.0,00.0,36.4,28.7,11.0,0000.0,0026.30,0005.29,0003.00
2021-11-30 12:41:00,,0831.2,4.99,0.00,27.0,26.0,00.0,36.4,28.6,11.0,0000.0,0026.98,0005.28,0002.98
2021-11-30 12:42:00,,0831.2,5.00,0.00,27.0,25.9,00.0,36.3,28.6,11.0,0000.0,0027.18,0005.28,0002.95
2021-11-30 12:43:00,,0831.3,5.00,0.00,27.0,25.9,00.0,36.3,28.6,11.0,0000.0,0027.50,0005.30,0002.89
2021-11-30 12:44:00,,0831.3,4.99,0.00,26.9,25.9,00.0,36.3,28.5,11.0,0000.0,0028.32,0005.39,0002.87
2021-11-30 12:45:00,,0831.3,5.01,0.00,26.9,25.9,00.0,36.2,28.5,11.0,0000.0,0027.44,0005.37,0002.85
2021-11-30 12:46:00,,0831.4,4.99,0.00,26.9,25.8,00.0,36.2,28.5,11.0,0000.0,0025.97,0005.36,0002.85
2021-11-30 12:47:00,,0831.4,5.00,0.00,26.8,25.8,00.0,36.2,28.5,11.0,0000.0,0026.81,0005.31,0002.81
2021-11-30 12:48:00,,0831.4,5.00,0.00,26.8,25.8,00.0,36.1,28.4,11.0,0000.0,0027.08,0005.34,0002.77
2021-11-30 12:49:00,,0831.4,5.01,0.00,26.8,25.8,00.0,36.1,28.4,11.0,0000.0,0026.60,0005.38,0002.73
2021-11-30 12:50:00,,0831.4,4.98,0.00,26.7,25.8,00.0,36.1,28.4,11.0,0000.0,0026.25,0005.44,0002.71
2021-11-30 12:51:00,,0831.3,5.01,0.00,26.7,25.7,00.0,36.0,28.3,11.0,0000.0,0027.49,0005.48,0002.71
2021-11-30 12:52:00,,0831.4,5.00,0.00,26.7,25.6,00.0,36.0,28.3,11.1,0000.0,0027.00,0005.40,0002.68
2021-11-30 12:53:00,,0831.4,4.99,0.00,26.7,25.6,00.0,36.0,28.3,11.1,0000.0,0025.75,0005.34,0002.65
2021-11-30 12:54:00,,0831.5,5.00,0.00,26.6,25.7,00.0,35.9,28.3,11.1,0000.0,0025.36,0005.37,0002.63
2021-11-30 12:55:00,,0831.5,5.01,0.00,26.6,25.6,00.0,35.9,28.2,11.2,0000.0,0025.06,0005.31,0002.63
2021-11-30 12:56:00,,0831.5,4.99,0.00,26.6,25.7,00.0,35.9,28.3,11.2,0000.0,0025.59,0005.31,0002.62
2021-11-30 12:57:00,,0831.5,5.01,0.00,26.6,25.7,00.0,35.9,28.3,11.1,0000.0,0027.38,0005.34,0002.60
2021-11-30 12:58:00,,0831.5,5.00,0.00,26.7,25.8,00.0,35.9,28.4,11.1,0000.0,0027.00,0005.40,0002.59
2021-11-30 12:59:00,,0831.5,4.99,0.00,26.7,25.8,00.0,35.9,28.4,11.0,0000.0,0027.58,0005.37,0002.58
